This is the latest recevied weather packets stored in our database for station/object KE2HEH. If no packets are shown the sender has not sent any weather packets the latest 10 day(s).
| Time | Temp. | Humidity | Pressure | Rain* | Wind** | Luminosity | Snow |
|---|---|---|---|---|---|---|---|
| 1777912415 | 13.33° C | 81% | 1013.5 hPa | 0 mm | - | 562 W/m² | - |
| 1777912111 | 13.33° C | 81% | 1013.6 hPa | 0 mm | - | 569 W/m² | - |
| 1777911807 | 13.33° C | 81% | 1013.4 hPa | 0 mm | - | 564 W/m² | - |
| 1777911504 | 13.33° C | 81% | 1013.6 hPa | 0 mm | - | 574 W/m² | - |
| 1777911201 | 13.33° C | 81% | 1013.8 hPa | 0 mm | - | 564 W/m² | - |
| 1777910898 | 13.33° C | 81% | 1013.6 hPa | 0 mm | - | 586 W/m² | - |
| 1777910595 | 13.33° C | 80% | 1013.8 hPa | 0 mm | - | 571 W/m² | - |
| 1777910292 | 13.33° C | 80% | 1014 hPa | 0 mm | - | 582 W/m² | - |
| 1777909988 | 13.33° C | 80% | 1014 hPa | 0 mm | - | 601 W/m² | - |
| 1777909686 | 13.33° C | 80% | 1014.2 hPa | 0 mm | - | 606 W/m² | - |
| 1777909383 | 13.33° C | 80% | 1014.2 hPa | 0 mm | - | 617 W/m² | - |
| 1777909080 | 13.33° C | 80% | 1014 hPa | 0 mm | - | 626 W/m² | - |
| 1777908778 | 13.33° C | 80% | 1014.3 hPa | 0 mm | - | 631 W/m² | - |
| 1777908475 | 12.78° C | 79% | 1014.5 hPa | 0 mm | - | 616 W/m² | - |
| 1777908171 | 13.33° C | 80% | 1014.4 hPa | 0 mm | - | 630 W/m² | - |
| 1777907868 | 13.33° C | 79% | 1014.5 hPa | 0 mm | - | 644 W/m² | - |
| 1777907564 | 13.33° C | 80% | 1014.6 hPa | 0 mm | - | 645 W/m² | - |
| 1777907259 | 13.33° C | 79% | 1014.4 hPa | 0 mm | - | 654 W/m² | - |
| 1777906956 | 12.78° C | 79% | 1014.7 hPa | 0 mm | - | 647 W/m² | - |
| 1777906654 | 13.33° C | 79% | 1014.5 hPa | 0 mm | - | 657 W/m² | - |
| 1777906350 | 13.33° C | 79% | 1014.5 hPa | 0 mm | - | 665 W/m² | - |
| 1777906046 | 12.78° C | 79% | 1014.6 hPa | 0 mm | - | 649 W/m² | - |
| 1777905743 | 12.78° C | 79% | 1014.6 hPa | 0 mm | - | 656 W/m² | - |
| 1777905440 | 12.78° C | 78% | 1014.6 hPa | 0 mm | - | 668 W/m² | - |
| 1777905138 | 12.78° C | 78% | 1014.6 hPa | 0 mm | - | 664 W/m² | - |
* Rain latest hour (hover to see other rain measurements)
** Current wind speed in m/s (hover to see current wind gust speed)